FENGYUN 1C DEB, 38159

Orbit data source: Space-Track

FENGYUN 1C DEB, 38159 is space debris in SSO originally from a launch on Mon, 10 May 1999 UTC launched from the Taiyaun Space Center, China (TSC). Fengyun 1C debris stems from the Chinese weather satellite Fengyun-1C, which was intentionally destroyed by a Chinese anti-satellite missile in 2007. This event dramatically increased the amount of space debris, with thousands of trackable fragments posing hazards to satellites and human spaceflight. The Fengyun 1C debris cloud has become a focal point in discussions about space sustainability and the need for international regulations to prevent the creation of new debris.

Loading next visibility...
Identifier
38159, 1999-025ERG
Orbit
SSO
Country
Flag of CNCN / PRC
Related business
Manufacturer
Unknown
Mission
Spacecraft
Bus & Motor
Unknown
Mass
Unknown
Launch date (UTC)
1999-05-10 (27 years ago)
Launch vehicle
Unknown
Launch site
Taiyaun Space Center, China (TSC)
Object type
Payload
Rocket body
Debris
Shape & HBR
Unknown shape, 0.1 m
Radar Cross Section
Small (<0.1 m²)

Expand to show TLE details & history
Last TLE update: 3 days ago

TLE from 3 days ago
0 FENGYUN 1C DEB
1 38159U 99025ERG 26204.94753520  .00000778  00000-0  51609-3 0  9996
2 38159  99.2964 106.8084 0057461  85.6121 275.1607 14.03768204862436
Epoch: 2026-07-23T22:44Z
TLE epoch observation values (Epoch: 2026-07-23T22:44:27.041Z)
Latitude
-0°
Longitude
-175.98548°
Altitude
880.134 km
Speed
7.414 km/s
True Right ascension
07h 07m 14s
True Declination
0° 00' 00"
Sunlit
Object was in daylight at epoch
Visualization orbit readout
Latitude
Unknown
Longitude
Unknown
Altitude
Unknown
Speed
Unknown
Apparent Right ascension
Unknown
Apparent Declination
Unknown
Sunlit
N/A
Visualization observer readout
Local Sidereal Time
16:15:53
Azimuth
Unknown
Elevation
Unknown
Doppler factor
Unknown
Orbital elements
Apogee altitude
919.679 km
Perigee altitude
836.29 km
Semi-major axis
7,256.122 km
Eccentricity
0.00575
Inclination
99.2964°
RAAN
106.8084°
Arg. of periapsis
85.6121°
True anomaly
274.5045°
Mean anomaly
275.1607°
Eccentric anomaly
274.83264°
Mean motion
3.51145 °/min
Orbital period
102.52 mins
BSTAR
0.00051609
Loading maneuver chart data...
Computing Atmospheric mass density...

Documentation

Showing up to 5 results
|